Location: Aciu?a
(46.2833°N, 22.4500°E)
Time: 13:28:14
(UTC+00:00)

Cosmos 1300 - Pass Details

Date: 25 October 2021
Orbit: 509 x 512 km, 82.5° (Epoch: 07 December)

Event Time Altitude Azimuth Distance (km) Brightness Sun altitude
Rises 16:01:20 0° 169° (S) 2,612 6.3 -6.7°
Reaches altitude 10° 16:03:32 10° 162° (SSE) 1,731 5.3 -7.1°
Maximum altitude 16:07:05 39° 93° (E) 785 3.1 -7.7°
Drops below altitude 10° 16:10:40 10° 24° (NNE) 1,745 5.1 -8.3°
Sets 16:12:53 0° 17° (NNE) 2,636 6.0 -8.6°
